TimeEDT,TemperatureF,Dew PointF,Humidity,Sea Level PressureIn,VisibilityMPH,Wind Direction,Wind SpeedMPH,Gust SpeedMPH,PrecipitationIn,Events,Conditions,WindDirDegrees,DateUTC
12:56 AM,64.9,62.1,90,30.06,7.0,Calm,Calm,-,N/A,,Clear,0,2013-05-30 04:56:00
1:56 AM,64.0,61.0,90,30.07,6.0,Calm,Calm,-,N/A,,Clear,0,2013-05-30 05:56:00
2:56 AM,64.0,61.0,90,30.07,5.0,Calm,Calm,-,N/A,,Clear,0,2013-05-30 06:56:00
3:56 AM,63.0,61.0,93,30.06,5.0,WNW,3.5,-,N/A,,Clear,300,2013-05-30 07:56:00
4:56 AM,66.0,61.0,84,30.06,8.0,Calm,Calm,-,N/A,,Clear,0,2013-05-30 08:56:00
5:56 AM,66.9,63.0,87,30.09,7.0,Calm,Calm,-,N/A,,Clear,0,2013-05-30 09:56:00
6:56 AM,71.1,64.9,81,30.10,7.0,Calm,Calm,-,N/A,,Clear,0,2013-05-30 10:56:00
7:56 AM,73.9,64.9,73,30.11,10.0,West,4.6,-,N/A,,Clear,260,2013-05-30 11:56:00
8:56 AM,77.0,64.0,64,30.12,6.0,West,6.9,-,N/A,,Haze,280,2013-05-30 12:56:00
9:56 AM,81.0,66.0,60,30.11,8.0,NW,6.9,-,N/A,,Clear,310,2013-05-30 13:56:00
10:56 AM,84.0,64.9,53,30.11,8.0,NW,5.8,-,N/A,,Clear,320,2013-05-30 14:56:00
11:56 AM,86.0,64.9,49,30.11,7.0,NW,5.8,-,N/A,,Clear,320,2013-05-30 15:56:00
12:56 PM,86.0,64.0,48,30.10,8.0,NW,5.8,-,N/A,,Scattered Clouds,310,2013-05-30 16:56:00
1:56 PM,88.0,62.1,42,30.08,10.0,Variable,4.6,-,N/A,,Scattered Clouds,0,2013-05-30 17:56:00
2:56 PM,89.1,61.0,39,30.08,10.0,WNW,6.9,-,N/A,,Scattered Clouds,290,2013-05-30 18:56:00
3:56 PM,89.1,60.1,38,30.06,8.0,WSW,5.8,-,N/A,,Scattered Clouds,250,2013-05-30 19:56:00
4:56 PM,89.1,57.9,35,30.05,8.0,West,5.8,-,N/A,,Partly Cloudy,260,2013-05-30 20:56:00
5:56 PM,86.0,63.0,46,30.05,10.0,South,9.2,-,N/A,,Clear,190,2013-05-30 21:56:00
6:56 PM,82.0,63.0,52,30.04,10.0,South,5.8,-,N/A,,Clear,180,2013-05-30 22:56:00
7:56 PM,79.0,64.0,60,30.05,10.0,South,5.8,-,N/A,,Clear,180,2013-05-30 23:56:00
8:56 PM,73.0,64.9,76,30.06,10.0,Calm,Calm,-,N/A,,Clear,0,2013-05-31 00:56:00
9:56 PM,72.0,64.9,78,30.07,10.0,Calm,Calm,-,N/A,,Clear,0,2013-05-31 01:56:00
10:56 PM,72.0,66.0,81,30.07,8.0,WNW,3.5,-,N/A,,Clear,290,2013-05-31 02:56:00
11:56 PM,71.1,64.9,81,30.08,9.0,WNW,3.5,-,N/A,,Clear,290,2013-05-31 03:56:00